TimeCDT,TemperatureF,Dew PointF,Humidity,Sea Level PressureIn,VisibilityMPH,Wind Direction,Wind SpeedMPH,Gust SpeedMPH,PrecipitationIn,Events,Conditions,WindDirDegrees,DateUTC
12:01 AM,64.4,51.8,64,29.96,10.0,ESE,6.9,-,N/A,,Clear,110,2013-09-22 05:01:00
12:20 AM,64.4,51.8,64,29.96,10.0,ESE,6.9,-,N/A,,Clear,110,2013-09-22 05:20:00
12:40 AM,62.6,51.8,68,29.95,10.0,ESE,6.9,-,N/A,,Clear,120,2013-09-22 05:40:00
1:01 AM,62.6,53.6,72,29.95,10.0,ESE,4.6,-,N/A,,Clear,110,2013-09-22 06:01:00
1:20 AM,62.6,53.6,72,29.95,10.0,ESE,5.8,-,N/A,,Clear,120,2013-09-22 06:20:00
1:40 AM,62.6,53.6,72,29.95,10.0,ESE,5.8,-,N/A,,Clear,110,2013-09-22 06:40:00
2:03 AM,62.6,51.8,68,29.95,10.0,ESE,6.9,-,N/A,,Clear,110,2013-09-22 07:03:00
2:20 AM,62.6,51.8,68,29.96,10.0,East,6.9,-,N/A,,Clear,100,2013-09-22 07:20:00
2:40 AM,62.6,51.8,68,29.96,10.0,ESE,5.8,-,N/A,,Clear,110,2013-09-22 07:40:00
3:00 AM,62.6,51.8,68,29.96,10.0,ESE,5.8,-,N/A,,Clear,110,2013-09-22 08:00:00
3:20 AM,60.8,51.8,72,29.95,10.0,ESE,4.6,-,N/A,,Clear,120,2013-09-22 08:20:00
3:41 AM,60.8,51.8,72,29.95,10.0,ESE,5.8,-,N/A,,Clear,110,2013-09-22 08:41:00
4:00 AM,60.8,51.8,72,29.95,10.0,East,5.8,-,N/A,,Clear,100,2013-09-22 09:00:00
4:21 AM,60.8,51.8,72,29.94,10.0,East,5.8,-,N/A,,Clear,100,2013-09-22 09:21:00
4:40 AM,60.8,50.0,68,29.94,10.0,ESE,6.9,-,N/A,,Clear,110,2013-09-22 09:40:00
5:00 AM,60.8,50.0,68,29.94,10.0,East,6.9,-,N/A,,Clear,100,2013-09-22 10:00:00
5:21 AM,59.0,50.0,72,29.94,10.0,East,5.8,-,N/A,,Clear,100,2013-09-22 10:21:00
5:40 AM,57.2,50.0,77,29.94,10.0,East,5.8,-,N/A,,Clear,90,2013-09-22 10:40:00
6:00 AM,57.2,50.0,77,29.94,10.0,East,6.9,-,N/A,,Clear,100,2013-09-22 11:00:00
6:20 AM,57.2,50.0,77,29.94,10.0,East,5.8,-,N/A,,Clear,100,2013-09-22 11:20:00
6:40 AM,57.2,50.0,77,29.94,10.0,East,6.9,-,N/A,,Clear,100,2013-09-22 11:40:00
7:00 AM,57.2,50.0,77,29.94,10.0,East,6.9,-,N/A,,Clear,100,2013-09-22 12:00:00
7:20 AM,59.0,48.2,67,29.95,10.0,ESE,6.9,-,N/A,,Clear,110,2013-09-22 12:20:00
7:41 AM,57.2,48.2,72,29.95,10.0,East,6.9,-,N/A,,Clear,100,2013-09-22 12:41:00
8:00 AM,59.0,50.0,72,29.95,10.0,East,6.9,-,N/A,,Clear,100,2013-09-22 13:00:00
8:21 AM,60.8,50.0,68,29.96,10.0,ESE,6.9,-,N/A,,Clear,110,2013-09-22 13:21:00
8:40 AM,62.6,51.8,68,29.97,10.0,ESE,6.9,-,N/A,,Clear,120,2013-09-22 13:40:00
9:00 AM,62.6,51.8,68,29.97,10.0,ESE,5.8,-,N/A,,Clear,120,2013-09-22 14:00:00
9:21 AM,64.4,51.8,64,29.97,10.0,ESE,5.8,-,N/A,,Clear,120,2013-09-22 14:21:00
9:40 AM,66.2,50.0,56,29.97,10.0,SE,9.2,-,N/A,,Clear,140,2013-09-22 14:40:00
10:00 AM,69.8,51.8,53,29.97,10.0,SE,9.2,-,N/A,,Clear,140,2013-09-22 15:00:00
10:21 AM,71.6,50.0,46,29.97,10.0,SSE,10.4,-,N/A,,Clear,150,2013-09-22 15:21:00
10:40 AM,73.4,48.2,41,29.97,10.0,SSE,12.7,-,N/A,,Clear,160,2013-09-22 15:40:00
11:01 AM,73.4,46.4,38,29.97,10.0,South,11.5,-,N/A,,Clear,170,2013-09-22 16:01:00
11:20 AM,75.2,46.4,36,29.97,10.0,SSE,11.5,-,N/A,,Clear,150,2013-09-22 16:20:00
11:41 AM,77.0,44.6,32,29.96,10.0,South,10.4,-,N/A,,Clear,170,2013-09-22 16:41:00
12:00 PM,78.8,44.6,30,29.96,10.0,SSE,11.5,-,N/A,,Clear,160,2013-09-22 17:00:00
12:20 PM,78.8,44.6,30,29.95,10.0,South,11.5,-,N/A,,Clear,170,2013-09-22 17:20:00
12:41 PM,80.6,44.6,28,29.94,10.0,SSE,10.4,16.1,N/A,,Clear,160,2013-09-22 17:41:00
1:00 PM,80.6,44.6,28,29.94,10.0,SSE,11.5,16.1,N/A,,Clear,160,2013-09-22 18:00:00
1:20 PM,82.4,44.6,26,29.93,10.0,SSE,10.4,-,N/A,,Clear,150,2013-09-22 18:20:00
1:43 PM,82.4,44.6,26,29.92,10.0,SSE,11.5,-,N/A,,Clear,160,2013-09-22 18:43:00
2:00 PM,82.4,44.6,26,29.91,10.0,South,12.7,-,N/A,,Clear,170,2013-09-22 19:00:00
2:20 PM,82.4,42.8,25,29.90,10.0,South,8.1,16.1,N/A,,Clear,170,2013-09-22 19:20:00
2:41 PM,82.4,44.6,26,29.88,10.0,South,8.1,-,N/A,,Clear,180,2013-09-22 19:41:00
3:00 PM,84.2,42.8,23,29.87,10.0,SSW,12.7,-,N/A,,Clear,200,2013-09-22 20:00:00
3:21 PM,84.2,42.8,23,29.87,10.0,SSW,9.2,16.1,N/A,,Clear,200,2013-09-22 20:21:00
3:40 PM,84.2,42.8,23,29.86,10.0,South,12.7,18.4,N/A,,Clear,180,2013-09-22 20:40:00
4:00 PM,84.2,42.8,23,29.85,10.0,SSW,10.4,-,N/A,,Clear,200,2013-09-22 21:00:00
4:21 PM,84.2,44.6,25,29.84,10.0,South,9.2,19.6,N/A,,Clear,170,2013-09-22 21:21:00
4:40 PM,84.2,44.6,25,29.83,10.0,SE,10.4,17.3,N/A,,Clear,140,2013-09-22 21:40:00
5:00 PM,84.2,44.6,25,29.83,10.0,SSE,13.8,18.4,N/A,,Clear,160,2013-09-22 22:00:00
5:20 PM,84.2,44.6,25,29.82,10.0,SSE,13.8,19.6,N/A,,Clear,150,2013-09-22 22:20:00
5:40 PM,84.2,44.6,25,29.82,10.0,SSE,12.7,-,N/A,,Clear,150,2013-09-22 22:40:00
6:00 PM,84.2,44.6,25,29.82,10.0,SSE,13.8,-,N/A,,Clear,150,2013-09-22 23:00:00
6:22 PM,82.4,44.6,26,29.82,10.0,SSE,12.7,17.3,N/A,,Clear,160,2013-09-22 23:22:00
6:40 PM,82.4,44.6,26,29.82,10.0,South,10.4,-,N/A,,Clear,170,2013-09-22 23:40:00
7:02 PM,80.6,44.6,28,29.82,10.0,South,11.5,18.4,N/A,,Clear,170,2013-09-23 00:02:00
7:20 PM,80.6,44.6,28,29.82,10.0,SSE,12.7,-,N/A,,Clear,160,2013-09-23 00:20:00
7:40 PM,78.8,44.6,30,29.82,10.0,SSE,9.2,-,N/A,,Clear,160,2013-09-23 00:40:00
8:00 PM,75.2,46.4,36,29.82,10.0,SSE,8.1,-,N/A,,Clear,160,2013-09-23 01:00:00
8:20 PM,75.2,46.4,36,29.82,10.0,SSE,10.4,-,N/A,,Clear,160,2013-09-23 01:20:00
8:40 PM,73.4,46.4,38,29.83,10.0,SSE,10.4,-,N/A,,Clear,160,2013-09-23 01:40:00
9:00 PM,73.4,46.4,38,29.83,10.0,SSE,10.4,-,N/A,,Clear,160,2013-09-23 02:00:00
9:22 PM,71.6,46.4,41,29.84,10.0,SSE,10.4,-,N/A,,Clear,150,2013-09-23 02:22:00
9:42 PM,71.6,46.4,41,29.84,10.0,SSE,10.4,-,N/A,,Clear,150,2013-09-23 02:42:00
10:00 PM,69.8,46.4,43,29.84,10.0,SSE,10.4,-,N/A,,Clear,150,2013-09-23 03:00:00
10:20 PM,69.8,46.4,43,29.84,10.0,SSE,10.4,-,N/A,,Clear,150,2013-09-23 03:20:00
10:40 PM,68.0,48.2,49,29.85,10.0,SE,9.2,-,N/A,,Clear,140,2013-09-23 03:40:00
11:00 PM,68.0,48.2,49,29.85,10.0,SSE,10.4,-,N/A,,Clear,150,2013-09-23 04:00:00
11:20 PM,69.8,46.4,43,29.85,10.0,SSE,11.5,-,N/A,,Clear,150,2013-09-23 04:20:00
11:40 PM,68.0,48.2,49,29.85,10.0,SE,13.8,-,N/A,,Clear,140,2013-09-23 04:40:00